Tracking 19720 objects as of 26-Jun-2019
HD Live streaming from Space Station
objects crossing your sky now

CZ-2D DEB

Track CZ-2D DEB now!
10-day predictions


NORAD ID: 38180
Int'l Code: 2011-068H
Perigee: 730.3 km
Apogee: 944.9 km
Inclination: 98.8 °
Period: 101.5 minutes
Semi major axis: 7208 km
RCS: 0.0013 m2 (small)
Launch date: November 20, 2011
Source: People's Republic of China (PRC)
Launch site: Jiuquan Satellite Launch Center, China (JSC)

Note: This is SATELLITE DEBRIS
aabbcc
Your satellite tracking list
Your tracking list is empty




NASA's NSSDC Master Catalog

Two Line Element Set (TLE):
1 38180U 11068H   19175.17100875 +.00000099 +00000-0 +61716-4 0  9991
2 38180 098.7761 154.4026 0148851 186.8954 234.9204 14.18490250389211
Source of the keplerian elements: AFSPC